Regional Weather Roundup
Issued by NWS

Home | Current Version | Previous Version | Text Only | Print | Product List | Glossary Off
Versions: 1 2 3 4 5 6 7 8 9 10 11 12 13 14 15 16 17 18 19 20 21 22 23 24 25 26 27 28 29 30 31 32 33 34 35 36 37 38 39 40 41 42 43 44 45 46 47 48 49 50

000
ASUS43 KIND 290259
RWRIN

WEATHER ROUNDUP FOR INDIANA
NATIONAL WEATHER SERVICE INDIANAPOLIS IN
1100 PM EDT WED JUN 28 2017

NOTE: "FAIR" INDICATES FEW OR NO CLOUDS BELOW 12,000 FEET WITH NO
SIGNIFICANT WEATHER AND/OR OBSTRUCTIONS TO VISIBILITY.

* - STATION DOES NOT REPORT WEATHER SUCH AS PRECIPITATION OR FOG.

+ - STATION NOT QUALITY CONTROLLED BY THE NATIONAL WEATHER SERVICE.
    USE DATA WITH CAUTION...ESPECIALLY DEWPOINT AND RELATIVE
    HUMIDITY OBSERVATIONS.

INZ001>003-010>013-019-020-290400-
NORTHWEST INDIANA

CITY           SKY/WX    TMP DP  RH WIND       PRES   REMARKS
GARY /AIRPORT/ CLOUDY    79  59  50 S14G28    29.82R
KNOX *+        CLOUDY    72  46  40 S15G24    29.85S
MICHIGAN CITY+ CLOUDY    73  55  53 S14G26    29.83R
MONTICELLO +   CLOUDY    73  57  57 S13       29.89S
RENSSELAER +   CLOUDY    73  55  53 S14G20    29.89R

$$

LMZ046-743>745-290400-
SOUTHERN LAKE MICHIGAN

STATION/POSITION TIME  TEMP    WIND        PRES    WAVE
                       AIR SEA DIR/SP/G            HT
                 (UTC) (F)     (DEG/KT/KT) (MB)    (FT)
BURNS HARBOR     0240   76     190/ 19/ 26 1009.8R
MICHIGAN CITY    0230   76     170/ 19/ 23   N/A
5NW MICH CITY    0250   74 65  190/ 17/ 27   N/A     5

$$

INZ004-005-014>016-021>024-290400-
NORTH CENTRAL INDIANA

CITY           SKY/WX    TMP DP  RH WIND       PRES   REMARKS
GOSHEN         CLOUDY    74  52  46 S18G24    29.89R
PERU/GRISSOM   CLEAR     72  57  58 S14       29.93R
SOUTH BEND     CLOUDY    74  57  55 S15G28    29.87R

$$

INZ006>009-017-018-025>027-290400-
NORTHEAST INDIANA

CITY           SKY/WX    TMP DP  RH WIND       PRES   REMARKS
ANGOLA *+      CLEAR     73  66  78 S12       29.92R
FORT WAYNE     CLOUDY    71  52  50 S13       29.96R
KENDALLVILLE + MOCLDY    72  52  48 S12G18    29.93R

$$

INZ028-029-035-036-043>045-051>053-290400-
WEST CENTRAL INDIANA

CITY           SKY/WX    TMP DP  RH WIND       PRES   REMARKS
CRAWFORDSVL +  CLEAR     69  59  72 S10       29.95R
LAFAYETTE      CLEAR     72  60  66 S9        29.91R
TERRE HAUTE    CLEAR     74  59  59 S9        29.95S

$$

INZ030>032-037>040-046>048-054>057-064-065-290400-
CENTRAL INDIANA

CITY           SKY/WX    TMP DP  RH WIND       PRES   REMARKS
CP ATTERBURY + CLEAR     66  55  68 S6        30.01R
GREENWOOD *+   CLEAR     71  55  56 S7        30.00R
INDIANAPOLIS   PTCLDY    70  57  63 S12       29.97R
-EAGLE CREEK   CLEAR     72  56  57 S5        29.97R
KOKOMO +       CLEAR     72  56  57 S12       29.96S
MT COMFORT *+  CLEAR     70  55  60 S6        30.00R
SHELBYVILLE    CLEAR     72  54  53 S9        29.99R

$$

INZ033-034-041-042-049-050-058-059-290400-
EAST CENTRAL INDIANA

CITY           SKY/WX    TMP DP  RH WIND       PRES   REMARKS
MUNCIE         CLEAR     73  55  53 S12       29.98R
RICHMOND +     CLOUDY    61  55  82 S7        30.04R

$$

INZ060-061-067>069-081>083-085>088-290400-
SOUTHWEST INDIANA

CITY           SKY/WX    TMP DP  RH WIND       PRES   REMARKS
EVANSVILLE     MOCLDY    76  61  59 S7        29.98R
HUNTINGBURG *+ PTCLDY    73  61  65 VRB5      30.00R

$$

INZ062-063-066-070>080-084-089>092-290400-
SOUTH CENTRAL AND SOUTHEAST INDIANA

CITY           SKY/WX    TMP DP  RH WIND       PRES   REMARKS
BLOOMINGTON    CLOUDY    70  57  63 S5        29.99R
MADISON *+     CLOUDY    70  54  56 SE3       30.05R
SEYMOUR +      CLOUDY    72  55  56 S6        30.00R

$$




USA.gov is the U.S. government's official web portal to all federal, state and local government web resources and services.